FDC1601 KGRR-KTRI

Flight info

Callsign FDC1601
Flight time 1h 1m
Altitude 35000
Route VIO ROD STEWS
Aircraft B752/M-SDE3FHIM3RW/LB1

Departure

Time 2026-05-08 14:44
Airport Gerald R. Ford International Airport (KGRR)

Arrival

Time 2026-05-08 15:45
Airport Tri-Cities Regional TN/VA Airport (KTRI)
Time Latitude Longitude Altitude Speed Heading
2026-05-08 14:28 42.88397 -85.50692 804 ft 0 kts 348°
2026-05-08 14:40 42.88386 -85.50689 804 ft 2 kts 348°
2026-05-08 14:40 42.88368 -85.50685 804 ft 3 kts 348°
2026-05-08 14:40 42.88349 -85.50679 804 ft 3 kts 348°
2026-05-08 14:40 42.88329 -85.50674 804 ft 3 kts 348°
2026-05-08 14:41 42.88313 -85.50669 804 ft 3 kts 349°
2026-05-08 14:41 42.88315 -85.50670 804 ft 0 kts 349°
2026-05-08 14:42 42.88317 -85.50670 804 ft 2 kts 349°
2026-05-08 14:42 42.88330 -85.50651 804 ft 5 kts 86°
2026-05-08 14:42 42.88294 -85.50616 804 ft 9 kts 164°
2026-05-08 14:42 42.88219 -85.50593 804 ft 12 kts 169°
2026-05-08 14:43 42.88132 -85.50572 804 ft 13 kts 171°
2026-05-08 14:43 42.88072 -85.50622 804 ft 9 kts 252°
2026-05-08 14:43 42.88067 -85.50644 804 ft 10 kts 257°
2026-05-08 14:43 42.88026 -85.50985 804 ft 67 kts 261°
2026-05-08 14:44 42.87923 -85.51901 804 ft 127 kts 262°
2026-05-08 14:44 42.87762 -85.53320 928 ft 166 kts 262°
2026-05-08 14:44 42.87566 -85.54942 1468 ft 181 kts 261°
2026-05-08 14:44 42.87336 -85.56798 2055 ft 215 kts 261°
2026-05-08 14:45 42.87077 -85.58902 2666 ft 234 kts 261°
2026-05-08 14:45 42.86579 -85.61046 3251 ft 242 kts 240°
2026-05-08 14:45 42.85357 -85.62640 3865 ft 250 kts 210°
2026-05-08 14:45 42.83655 -85.63235 4479 ft 257 kts 180°
2026-05-08 14:46 42.81944 -85.62643 5080 ft 260 kts 152°
2026-05-08 14:46 42.80610 -85.60990 5696 ft 261 kts 125°
2026-05-08 14:46 42.79801 -85.58764 6316 ft 264 kts 109°
2026-05-08 14:46 42.79338 -85.56329 6926 ft 266 kts 101°
2026-05-08 14:47 42.79026 -85.53859 7525 ft 267 kts 99°
2026-05-08 14:47 42.78350 -85.51499 8121 ft 269 kts 122°
2026-05-08 14:47 42.77109 -85.49582 8737 ft 273 kts 137°
2026-05-08 14:47 42.75584 -85.48038 9342 ft 276 kts 147°
2026-05-08 14:48 42.73919 -85.46749 9942 ft 278 kts 152°
2026-05-08 14:48 42.72172 -85.45596 10536 ft 281 kts 155°
2026-05-08 14:48 42.70326 -85.44477 10901 ft 295 kts 156°
2026-05-08 14:48 42.68399 -85.43350 11188 ft 310 kts 156°
2026-05-08 14:49 42.66384 -85.42160 11451 ft 324 kts 156°
2026-05-08 14:49 42.64274 -85.40899 11696 ft 339 kts 156°
2026-05-08 14:49 42.62061 -85.39571 11912 ft 354 kts 156°
2026-05-08 14:49 42.59763 -85.38189 12177 ft 365 kts 156°
2026-05-08 14:50 42.57415 -85.36775 12530 ft 374 kts 156°
2026-05-08 14:50 42.55028 -85.35338 12964 ft 380 kts 155°
2026-05-08 14:50 42.52578 -85.33868 13320 ft 390 kts 159°
2026-05-08 14:50 42.50081 -85.32383 13695 ft 399 kts 161°
2026-05-08 14:51 42.47480 -85.30853 13997 ft 410 kts 162°
2026-05-08 14:51 42.44853 -85.29322 14351 ft 418 kts 162°
2026-05-08 14:51 42.42165 -85.27735 14802 ft 424 kts 162°
2026-05-08 14:51 42.39448 -85.26115 15318 ft 426 kts 162°
2026-05-08 14:52 42.36722 -85.24481 15872 ft 428 kts 162°
2026-05-08 14:52 42.31253 -85.21190 16891 ft 432 kts 162°
2026-05-08 14:52 42.28481 -85.19547 17284 ft 436 kts 162°
2026-05-08 14:53 42.25692 -85.17905 17630 ft 441 kts 162°
2026-05-08 14:53 42.22886 -85.16230 18034 ft 445 kts 162°
2026-05-08 14:53 42.20020 -85.14520 18489 ft 447 kts 162°
2026-05-08 14:53 42.17188 -85.12848 18904 ft 450 kts 162°
2026-05-08 14:54 42.14302 -85.11128 19313 ft 453 kts 162°
2026-05-08 14:54 42.11397 -85.09384 19736 ft 456 kts 162°
2026-05-08 14:54 42.08502 -85.07652 20140 ft 458 kts 162°
2026-05-08 14:54 42.05558 -85.05922 20538 ft 460 kts 162°
2026-05-08 14:55 42.02609 -85.04185 20917 ft 462 kts 162°
2026-05-08 14:55 41.99688 -85.02448 21285 ft 464 kts 162°
2026-05-08 14:55 41.96738 -85.00689 21642 ft 466 kts 162°
2026-05-08 14:55 41.93758 -84.98938 21991 ft 468 kts 162°
2026-05-08 14:56 41.90754 -84.97181 22335 ft 470 kts 162°
2026-05-08 14:56 41.87766 -84.95416 22662 ft 472 kts 162°
2026-05-08 14:56 41.84754 -84.93629 23032 ft 475 kts 162°
2026-05-08 14:56 41.81701 -84.91832 23414 ft 477 kts 162°
2026-05-08 14:57 41.78655 -84.90062 23786 ft 479 kts 162°
2026-05-08 14:57 41.75573 -84.88256 24153 ft 481 kts 162°
2026-05-08 14:57 41.72517 -84.86457 24504 ft 483 kts 162°
2026-05-08 14:57 41.69439 -84.84661 24851 ft 485 kts 162°
2026-05-08 14:58 41.66335 -84.82858 25198 ft 487 kts 162°
2026-05-08 14:58 41.63235 -84.81060 25531 ft 488 kts 162°
2026-05-08 14:58 41.60104 -84.79246 25857 ft 490 kts 162°
2026-05-08 14:58 41.56939 -84.77411 26175 ft 492 kts 162°
2026-05-08 14:59 41.53824 -84.75604 26478 ft 494 kts 162°
2026-05-08 14:59 41.47487 -84.71923 27046 ft 498 kts 162°
2026-05-08 14:59 41.44299 -84.70070 27320 ft 500 kts 162°
2026-05-08 15:00 41.41122 -84.68221 27595 ft 501 kts 162°
2026-05-08 15:00 41.37941 -84.66369 27860 ft 503 kts 162°
2026-05-08 15:00 41.34718 -84.64492 28138 ft 505 kts 162°
2026-05-08 15:00 41.31501 -84.62617 28421 ft 507 kts 162°
2026-05-08 15:01 41.28237 -84.60721 28706 ft 508 kts 163°
2026-05-08 15:01 41.25011 -84.58878 28981 ft 509 kts 163°
2026-05-08 15:01 41.21707 -84.56997 29257 ft 511 kts 163°
2026-05-08 15:01 41.18431 -84.55131 29524 ft 512 kts 163°
2026-05-08 15:02 41.15180 -84.53279 29775 ft 514 kts 163°
2026-05-08 15:02 41.11859 -84.51385 30032 ft 515 kts 163°
2026-05-08 15:02 41.08588 -84.49517 30367 ft 514 kts 163°
2026-05-08 15:02 41.05310 -84.47637 30822 ft 510 kts 163°
2026-05-08 15:03 41.02079 -84.45771 31381 ft 503 kts 163°
2026-05-08 15:03 40.98907 -84.43932 31877 ft 499 kts 164°
2026-05-08 15:03 40.95706 -84.42095 32247 ft 497 kts 164°
2026-05-08 15:03 40.92545 -84.40293 32487 ft 498 kts 164°
2026-05-08 15:04 40.89345 -84.38476 32617 ft 502 kts 164°
2026-05-08 15:04 40.86115 -84.36650 32703 ft 507 kts 164°
2026-05-08 15:04 40.79594 -84.32982 32918 ft 514 kts 165°
2026-05-08 15:05 40.76287 -84.31125 33120 ft 515 kts 165°
2026-05-08 15:05 40.74077 -84.29878 33285 ft 516 kts 164°
2026-05-08 15:05 40.70764 -84.27991 33475 ft 518 kts 165°
2026-05-08 15:05 40.67453 -84.26122 33585 ft 521 kts 165°
2026-05-08 15:06 40.64089 -84.24236 33752 ft 523 kts 165°
2026-05-08 15:06 40.60733 -84.22347 34018 ft 523 kts 165°
2026-05-08 15:06 40.57428 -84.20473 34333 ft 521 kts 165°
2026-05-08 15:06 40.54079 -84.18563 34614 ft 520 kts 165°
2026-05-08 15:07 40.50790 -84.16696 34822 ft 520 kts 165°
2026-05-08 15:07 40.47455 -84.14826 34942 ft 520 kts 165°
2026-05-08 15:07 40.40800 -84.11126 35006 ft 519 kts 165°
2026-05-08 15:08 40.34162 -84.07437 35011 ft 517 kts 165°
2026-05-08 15:08 40.27551 -84.03770 35013 ft 514 kts 166°
2026-05-08 15:09 40.20880 -84.00429 35018 ft 511 kts 169°
2026-05-08 15:09 40.14168 -83.97320 35021 ft 512 kts 170°
2026-05-08 15:10 40.07440 -83.94240 35022 ft 514 kts 169°
2026-05-08 15:10 40.00890 -83.91164 35024 ft 515 kts 169°
2026-05-08 15:11 39.94135 -83.87922 35024 ft 515 kts 169°
2026-05-08 15:11 39.87414 -83.84744 35026 ft 515 kts 169°
2026-05-08 15:12 39.80691 -83.81581 35027 ft 515 kts 169°
2026-05-08 15:12 39.74159 -83.78515 35026 ft 515 kts 169°
2026-05-08 15:13 39.67432 -83.75360 35031 ft 514 kts 169°
2026-05-08 15:13 39.60669 -83.72190 35032 ft 514 kts 169°
2026-05-08 15:14 39.53937 -83.69036 35033 ft 514 kts 169°
2026-05-08 15:14 39.47222 -83.65891 35045 ft 514 kts 169°
2026-05-08 15:15 39.40475 -83.62734 35048 ft 514 kts 169°
2026-05-08 15:15 39.33759 -83.59593 35047 ft 514 kts 169°
2026-05-08 15:16 39.27035 -83.56449 35047 ft 514 kts 169°
2026-05-08 15:16 39.20255 -83.53295 35047 ft 514 kts 169°
2026-05-08 15:17 39.13539 -83.50211 35048 ft 514 kts 169°
2026-05-08 15:17 39.06831 -83.47098 35048 ft 514 kts 169°
2026-05-08 15:18 39.00073 -83.44012 35049 ft 514 kts 169°
2026-05-08 15:18 38.93338 -83.40904 35062 ft 514 kts 171°
2026-05-08 15:19 38.86604 -83.37839 35058 ft 511 kts 172°
2026-05-08 15:19 38.79909 -83.34791 35066 ft 511 kts 171°
2026-05-08 15:20 38.73222 -83.31728 35068 ft 510 kts 172°
2026-05-08 15:20 38.66531 -83.28713 35065 ft 510 kts 173°
2026-05-08 15:21 38.59849 -83.25661 35080 ft 509 kts 173°
2026-05-08 15:21 38.53173 -83.22651 35081 ft 509 kts 173°
2026-05-08 15:22 38.46490 -83.19642 35062 ft 512 kts 173°
2026-05-08 15:22 38.43070 -83.18084 34566 ft 521 kts 172°
2026-05-08 15:22 38.39680 -83.16531 34071 ft 520 kts 172°
2026-05-08 15:23 38.36283 -83.14965 33571 ft 518 kts 172°
2026-05-08 15:23 38.32900 -83.13424 33071 ft 514 kts 173°
2026-05-08 15:23 38.29516 -83.11903 32569 ft 511 kts 173°
2026-05-08 15:23 38.26161 -83.10407 32069 ft 509 kts 173°
2026-05-08 15:24 38.22836 -83.08928 31572 ft 507 kts 173°
2026-05-08 15:24 38.19521 -83.07431 31075 ft 506 kts 173°
2026-05-08 15:24 38.16203 -83.05933 30576 ft 506 kts 172°
2026-05-08 15:24 38.12879 -83.04426 30076 ft 506 kts 172°
2026-05-08 15:25 38.09552 -83.02925 29576 ft 506 kts 172°
2026-05-08 15:25 38.06258 -83.01454 29080 ft 505 kts 171°
2026-05-08 15:25 38.02907 -82.99952 28555 ft 504 kts 171°
2026-05-08 15:25 37.99633 -82.98489 28015 ft 503 kts 171°
2026-05-08 15:26 37.96336 -82.97016 27466 ft 501 kts 170°
2026-05-08 15:26 37.93067 -82.95551 26917 ft 497 kts 170°
2026-05-08 15:26 37.89779 -82.94088 26361 ft 494 kts 169°
2026-05-08 15:26 37.86573 -82.92533 25812 ft 494 kts 166°
2026-05-08 15:27 37.83412 -82.90783 25244 ft 494 kts 162°
2026-05-08 15:27 37.80332 -82.88870 24636 ft 493 kts 160°
2026-05-08 15:27 37.77308 -82.86852 24017 ft 491 kts 158°
2026-05-08 15:27 37.74326 -82.84811 23412 ft 486 kts 158°
2026-05-08 15:28 37.71382 -82.82812 22887 ft 479 kts 159°
2026-05-08 15:28 37.68438 -82.80858 22380 ft 472 kts 159°
2026-05-08 15:28 37.65541 -82.78990 21879 ft 466 kts 160°
2026-05-08 15:28 37.62659 -82.77172 21378 ft 461 kts 160°
2026-05-08 15:29 37.59783 -82.75382 20875 ft 457 kts 160°
2026-05-08 15:29 37.56939 -82.73601 20372 ft 454 kts 160°
2026-05-08 15:29 37.54134 -82.71834 19874 ft 451 kts 160°
2026-05-08 15:29 37.51328 -82.70066 19373 ft 449 kts 160°
2026-05-08 15:30 37.48539 -82.68312 18873 ft 446 kts 159°
2026-05-08 15:30 37.45763 -82.66546 18370 ft 444 kts 159°
2026-05-08 15:30 37.43013 -82.64785 17869 ft 441 kts 159°
2026-05-08 15:30 37.40294 -82.63044 17369 ft 438 kts 159°
2026-05-08 15:31 37.37604 -82.61331 16871 ft 434 kts 159°
2026-05-08 15:31 37.34918 -82.59644 16370 ft 430 kts 159°
2026-05-08 15:31 37.32227 -82.57949 15865 ft 426 kts 159°
2026-05-08 15:31 37.29615 -82.56305 15368 ft 422 kts 159°
2026-05-08 15:32 37.26973 -82.54647 14862 ft 418 kts 159°
2026-05-08 15:32 37.24389 -82.53034 14363 ft 414 kts 158°
2026-05-08 15:32 37.21852 -82.51439 13870 ft 408 kts 157°
2026-05-08 15:32 37.19350 -82.49865 13493 ft 394 kts 156°
2026-05-08 15:33 37.16924 -82.48343 13231 ft 378 kts 156°
2026-05-08 15:33 37.14611 -82.46899 12972 ft 364 kts 156°
2026-05-08 15:33 37.12402 -82.45507 12716 ft 352 kts 156°
2026-05-08 15:33 37.10260 -82.44144 12462 ft 340 kts 156°
2026-05-08 15:34 37.08191 -82.42828 12207 ft 330 kts 156°
2026-05-08 15:34 37.06146 -82.41541 11950 ft 321 kts 156°
2026-05-08 15:34 37.04194 -82.40317 11696 ft 313 kts 155°
2026-05-08 15:34 37.02266 -82.39115 11440 ft 306 kts 155°
2026-05-08 15:35 37.00363 -82.37939 11209 ft 303 kts 156°
2026-05-08 15:35 36.98463 -82.36774 10932 ft 297 kts 156°
2026-05-08 15:35 36.96628 -82.35645 10678 ft 292 kts 155°
2026-05-08 15:35 36.94843 -82.34530 10426 ft 288 kts 155°
2026-05-08 15:36 36.93053 -82.33410 10205 ft 286 kts 155°
2026-05-08 15:36 36.91867 -82.32670 10114 ft 284 kts 155°
2026-05-08 15:36 36.89528 -82.31219 10027 ft 281 kts 155°
2026-05-08 15:36 36.87767 -82.30130 10018 ft 281 kts 155°
2026-05-08 15:37 36.86006 -82.29043 9832 ft 290 kts 155°
2026-05-08 15:37 36.84775 -82.28287 9664 ft 293 kts 155°
2026-05-08 15:37 36.82973 -82.27165 9416 ft 287 kts 154°
2026-05-08 15:37 36.80644 -82.25699 9078 ft 279 kts 154°
2026-05-08 15:38 36.79487 -82.24973 8908 ft 275 kts 154°
2026-05-08 15:38 36.77793 -82.23915 8653 ft 270 kts 154°
2026-05-08 15:38 36.76122 -82.22874 8419 ft 263 kts 154°
2026-05-08 15:38 36.74522 -82.21896 8167 ft 256 kts 154°
2026-05-08 15:39 36.72926 -82.20915 7866 ft 251 kts 154°
2026-05-08 15:39 36.71393 -82.19974 7542 ft 243 kts 154°
2026-05-08 15:39 36.69909 -82.19096 7161 ft 239 kts 157°
2026-05-08 15:39 36.68286 -82.18892 6756 ft 235 kts 189°
2026-05-08 15:40 36.66807 -82.19601 6487 ft 224 kts 210°
2026-05-08 15:40 36.65541 -82.20640 6230 ft 209 kts 218°
2026-05-08 15:40 36.64444 -82.21714 5981 ft 194 kts 222°
2026-05-08 15:40 36.63411 -82.22803 5729 ft 193 kts 224°
2026-05-08 15:41 36.62398 -82.23899 5485 ft 194 kts 224°
2026-05-08 15:41 36.61377 -82.25033 5236 ft 195 kts 225°
2026-05-08 15:41 36.60370 -82.26161 4988 ft 195 kts 225°
2026-05-08 15:41 36.59390 -82.27256 4733 ft 189 kts 225°
2026-05-08 15:42 36.58416 -82.28343 4471 ft 184 kts 225°
2026-05-08 15:42 36.57488 -82.29396 4243 ft 177 kts 226°
2026-05-08 15:42 36.56587 -82.30426 3929 ft 179 kts 225°
2026-05-08 15:42 36.55658 -82.31465 3561 ft 178 kts 225°
2026-05-08 15:43 36.54749 -82.32477 3265 ft 173 kts 225°
2026-05-08 15:43 36.53874 -82.33456 3040 ft 167 kts 225°
2026-05-08 15:43 36.53008 -82.34415 2799 ft 163 kts 225°
2026-05-08 15:43 36.52178 -82.35350 2583 ft 162 kts 226°
2026-05-08 15:44 36.51377 -82.36309 2411 ft 159 kts 228°
2026-05-08 15:44 36.50589 -82.37262 2234 ft 158 kts 227°
2026-05-08 15:44 36.49771 -82.38210 2012 ft 159 kts 226°
2026-05-08 15:44 36.48965 -82.39131 1778 ft 154 kts 226°
2026-05-08 15:45 36.48192 -82.40016 1577 ft 150 kts 226°
2026-05-08 15:45 36.47503 -82.40810 1529 ft 109 kts 222°
2026-05-08 15:45 36.47098 -82.41276 1529 ft 53 kts 223°
2026-05-08 15:45 36.46941 -82.41450 1529 ft 17 kts 216°
2026-05-08 15:46 36.46869 -82.41448 1529 ft 7 kts 138°
2026-05-08 15:46 36.46840 -82.41411 1529 ft 6 kts 134°
2026-05-08 15:46 36.46809 -82.41373 1529 ft 6 kts 134°
2026-05-08 15:46 36.46770 -82.41321 1529 ft 10 kts 132°
2026-05-08 15:47 36.46716 -82.41246 1529 ft 13 kts 128°
2026-05-08 15:47 36.46723 -82.41157 1529 ft 12 kts 50°
2026-05-08 15:47 36.46789 -82.41075 1529 ft 15 kts 43°
2026-05-08 15:47 36.46869 -82.40982 1529 ft 17 kts 43°
2026-05-08 15:48 36.47050 -82.40777 1529 ft 16 kts 42°
2026-05-08 15:48 36.47126 -82.40692 1529 ft 14 kts 42°
2026-05-08 15:48 36.47188 -82.40603 1529 ft 13 kts 78°
2026-05-08 15:49 36.47185 -82.40513 1529 ft 9 kts 90°
2026-05-08 15:49 36.47165 -82.40462 1529 ft 5 kts 131°
2026-05-08 15:49 36.47154 -82.40447 1529 ft 0 kts 132°